Simultaneous Nadir Overpasses (SNOs) Predictions

Prediction of SNOs between FY3D and NOAA-19 Satellite Orbit:

Table of predicted SNOs for the next 14.0 days since TLE Epoch: 12/17/2023
Index Date (FY3D) Time (FY3D) Lat,Lon (FY3D) SZA (FY3D ) Date (NOAA-19) Time (NOAA-19) Lat,Lon (NOAA-19) SZA (NOAA-19 ) Distance(km) Time Diff (sec)
1 12/26/2023 17:22:43 -75.84, 95.90 80.86 12/26/2023 17:21:36 -75.83, 93.14 80.81 75.05 67
2 12/26/2023 18:13:37 76.18, -97.99 99.51 12/26/2023 18:12:23 76.18, -98.32 99.52 8.61 74
3 12/26/2023 19:04:23 -76.24, 69.11 80.44 12/26/2023 19:03:25 -76.25, 69.19 80.42 2.38 58
4 12/26/2023 19:55:09 76.22,-123.51 99.54 12/26/2023 19:54:20 76.25,-123.55 99.58 3.31 49
5 12/26/2023 20:45:54 -76.24, 43.75 80.45 12/26/2023 20:45:24 -76.23, 43.62 80.45 3.51 30
6 12/26/2023 21:36:41 76.26,-149.03 99.58 12/26/2023 21:36:18 76.27,-148.95 99.60 2.47 23
7 12/26/2023 22:27:26 -76.27, 18.23 80.41 12/26/2023 22:27:22 -76.26, 18.22 80.43 2.01 4
8 12/26/2023 23:18:12 76.25,-174.39 99.57 12/26/2023 23:18:17 76.25,-174.52 99.57 3.65 5
9 12/27/2023 00:08:57 -76.27, -7.12 80.42 12/27/2023 00:09:20 -76.28, -7.18 80.41 2.08 23
10 12/27/2023 00:59:44 76.29, 160.09 99.61 12/27/2023 01:00:15 76.28, 160.07 99.59 1.95 31
11 12/27/2023 01:50:29 -76.31, -32.64 80.38 12/27/2023 01:51:18 -76.30, -32.58 80.39 1.61 49
12 12/27/2023 02:41:15 76.29, 134.74 99.60 12/27/2023 02:42:13 76.30, 134.67 99.61 2.24 58
13 12/27/2023 03:32:02 -76.39, -58.33 80.29 12/27/2023 03:33:16 -76.33, -57.98 80.37 11.36 74
14 12/27/2023 04:22:56 76.72, 107.68 100.08 12/27/2023 04:24:02 76.71, 110.83 100.00 80.67 66



Historial Predications of SNOs between FY3D and NOAA-19
